Location: Sternwarte auf dem Internationalen Platz Vogelsang IP
(50.5721°N, 6.4398°E)
Time: 04:26:57
(UTC+01:00)

Transit 2A Rocket - Pass Details

Date: 13 December 2025
Orbit: 581 x 903 km, 66.7° (Epoch: 13 January)

Event Time Altitude Azimuth Distance (km) Brightness Sun altitude
Rises 16:48:13 0° 322° (NW) 3,535 8.5 -3.2°
Reaches altitude 10° 16:50:47 10° 325° (NW) 2,590 7.8 -3.6°
Maximum altitude 16:56:51 69° 49° (NE) 946 5.3 -4.4°
Drops below altitude 10° 17:02:38 10° 133° (SE) 2,476 7.5 -5.2°
Sets 17:05:02 0° 136° (SE) 3,368 8.2 -5.5°
